H1 CPF 2 NER 2021 2 27 9 058 01 glonass121 H2 1000702 9121 36401 2021 2 27 0 0 0 2021 3 2 23 45 0 900 1 1 0 0 0 1 H9 10 0 59272 0.00000 0 -7836098.028 -17341774.123 16921159.322 10 0 59272 900.00000 0 -6229901.398 -15796559.495 18983689.796 10 0 59272 1800.00000 0 -4325041.724 -14241484.020 20675871.031 10 0 59272 2700.00000 0 -2153310.557 -12737606.355 21964984.004 10 0 59272 3600.00000 0 241846.496 -11340233.692 22826236.921 10 0 59272 4500.00000 0 2806915.492 -10096647.195 23243226.077 10 0 59272 5400.00000 0 5480322.867 -9044191.281 23208228.186 10 0 59272 6300.00000 0 8194782.087 -8208805.227 22722320.754 10 0 59272 7200.00000 0 10879879.324 -7604055.996 21795330.523 10 0 59272 8100.00000 0 13464790.241 -7230709.597 20445613.339 10 0 59272 9000.00000 0 15881015.387 -7076855.460 18699671.824 10 0 59272 9900.00000 0 18065021.578 -7118575.280 16591620.031 10 0 59272 10800.00000 0 19960681.456 -7321125.252 14162506.783 10 0 59272 11700.00000 0 21521412.240 -7640579.734 11459511.603 10 0 59272 12600.00000 0 22711927.485 -8025865.768 8535029.176 10 0 59272 13500.00000 0 23509531.862 -8421102.220 5445659.910 10 0 59272 14400.00000 0 23904907.854 -8768145.334 2251125.465 10 0 59272 15300.00000 0 23902363.929 -9009234.415 -986870.637 10 0 59272 16200.00000 0 23519535.740 -9089627.671 -4205816.663 10 0 59272 17100.00000 0 22786553.932 -8960118.856 -7343579.459 10 0 59272 18000.00000 0 21744713.698 -8579330.421 -10339583.079 10 0 59272 18900.00000 0 20444701.209 -7915687.989 -13135958.285 10 0 59272 19800.00000 0 18944449.905 -6948993.837 -15678642.549 10 0 59272 20700.00000 0 17306714.539 -5671533.300 -17918410.803 10 0 59272 21600.00000 0 15596462.305 -4088666.677 -19811818.495 10 0 59272 22500.00000 0 13878187.873 -2218879.953 -21322039.771 10 0 59272 23400.00000 0 12213262.566 -93289.504 -22419585.070 10 0 59272 24300.00000 0 10657426.793 2245381.990 -23082884.378 10 0 59272 25200.00000 0 9258529.501 4744319.550 -23298724.249 10 0 59272 26100.00000 0 8054608.901 7342560.623 -23062528.984 10 0 59272 27000.00000 0 7072395.184 9973293.236 -22378478.779 10 0 59272 27900.00000 0 6326299.090 12566415.066 -21259460.379 10 0 59272 28800.00000 0 5817930.511 15051249.053 -19726848.646 10 0 59272 29700.00000 0 5536169.400 17359303.692 -17810120.692 10 0 59272 30600.00000 0 5457788.107 19426963.097 -15546307.474 10 0 59272 31500.00000 0 5548600.879 21197993.495 -12979291.401 10 0 59272 32400.00000 0 5765093.306 22625759.679 -10158961.961 10 0 59272 33300.00000 0 6056463.453 23675056.204 -7140244.880 10 0 59272 34200.00000 0 6366987.917 24323473.943 -3982023.755 10 0 59272 35100.00000 0 6638611.245 24562242.163 -745975.962 10 0 59272 36000.00000 0 6813646.702 24396508.842 2504652.875 10 0 59272 36900.00000 0 6837470.946 23845046.293 5706309.592 10 0 59272 37800.00000 0 6661095.066 22939394.404 8796402.115 10 0 59272 38700.00000 0 6243499.597 21722478.546 11714548.441 10 0 59272 39600.00000 0 5553631.632 20246762.215 14403778.775 10 0 59272 40500.00000 0 4571977.066 18572014.836 16811665.057 10 0 59272 41400.00000 0 3291639.892 16762791.592 18891354.151 10 0 59272 42300.00000 0 1718882.358 14885734.247 20602483.448 10 0 59272 43200.00000 0 -126896.626 13006808.917 21911960.956 10 0 59272 44100.00000 0 -2213743.038 11188598.520 22794595.278 10 0 59272 45000.00000 0 -4498263.367 9487764.316 23233564.531 10 0 59272 45900.00000 0 -6927225.986 7952782.617 23220716.982 10 0 59272 46800.00000 0 -9439579.720 6622050.009 22756699.813 10 0 59272 47700.00000 0 -11968804.041 5522434.082 21850915.874 10 0 59272 48600.00000 0 -14445492.180 4668327.163 20521311.650 10 0 59272 49500.00000 0 -16800059.555 4061239.062 18794002.659 10 0 59272 50400.00000 0 -18965465.352 3689942.219 16702745.357 10 0 59272 51300.00000 0 -20879835.438 3531159.648 14288267.112 10 0 59272 52200.00000 0 -22488879.455 3550763.831 11597468.042 10 0 59272 53100.00000 0 -23748003.829 3705433.994 8682510.592 10 0 59272 54000.00000 0 -24624035.369 3944700.709 5599814.270 10 0 59272 54900.00000 0 -25096486.276 4213291.316 2408974.423 10 0 59272 55800.00000 0 -25158310.139 4453677.806 -828374.971 10 0 59272 56700.00000 0 -24816119.331 4608720.862 -4049733.788 10 0 59272 57600.00000 0 -24089855.972 4624300.145 -7192922.447 10 0 59272 58500.00000 0 -23011930.761 4451821.676 -10197261.468 10 0 59272 59400.00000 0 -21625865.368 4050498.285 -13004722.918 10 0 59272 60300.00000 0 -19984494.084 3389308.194 -15561033.302 10 0 59272 61200.00000 0 -18147798.185 2448549.969 -17816708.127 10 0 59272 62100.00000 0 -16180461.339 1220928.054 -19727999.614 10 0 59272 63000.00000 0 -14149245.675 -287877.894 -21257740.331 10 0 59272 63900.00000 0 -12120295.757 -2059185.958 -22376066.962 10 0 59272 64800.00000 0 -10156480.810 -4061831.375 -23061010.375 10 0 59272 65700.00000 0 -8314884.498 -6253214.359 -23298940.020 10 0 59272 66600.00000 0 -6644546.171 -8580836.504 -23084852.905 10 0 59272 67500.00000 0 -5184547.655 -10984265.575 -22422499.883 10 0 59272 68400.00000 0 -3962526.166 -13397450.305 -21324344.600 10 0 59272 69300.00000 0 -2993676.827 -15751291.406 -19811353.399 10 0 59272 70200.00000 0 -2280288.291 -17976363.402 -17912617.634 10 0 59272 71100.00000 0 -1811832.870 -20005674.393 -15664813.140 10 0 59272 72000.00000 0 -1565609.257 -21777347.968 -13111505.209 10 0 59272 72900.00000 0 -1507912.229 -23237113.608 -10302310.896 10 0 59272 73800.00000 0 -1595680.743 -24340499.059 -7291934.009 10 0 59272 74700.00000 0 -1778554.759 -25054629.891 -4139091.531 10 0 59272 75600.00000 0 -2001252.738 -25359557.938 -905353.153 10 0 59272 76500.00000 0 -2206167.172 -25249060.241 2346081.899 10 0 59272 77400.00000 0 -2336065.430 -24730873.028 5551644.560 10 0 59272 78300.00000 0 -2336778.217 -23826350.017 8648664.934 10 0 59272 79200.00000 0 -2159758.198 -22569559.521 11576622.959 10 0 59272 80100.00000 0 -1764397.177 -21005859.575 14278353.558 10 0 59272 81000.00000 0 -1120000.901 -19190013.086 16701180.360 10 0 59272 81900.00000 0 -207335.927 -17183924.852 18797954.170 10 0 59272 82800.00000 0 980317.907 -15054098.445 20527974.791 10 0 59272 83700.00000 0 2436654.043 -12868922.323 21857778.114 10 0 59272 84600.00000 0 4142385.853 -10695901.068 22761773.707 10 0 59272 85500.00000 0 6065850.133 -8598949.055 23222721.783 10 0 59273 0.00000 0 8164140.484 -6635859.969 23232042.153 10 0 59273 900.00000 0 10384721.709 -4856057.227 22789951.361 10 0 59273 1800.00000 0 12667455.408 -3298716.854 21905427.829 10 0 59273 2700.00000 0 14946951.959 -1991339.579 20596007.879 10 0 59273 3600.00000 0 17155149.602 -948826.751 18887418.913 10 0 59273 4500.00000 0 19224013.381 -173096.164 16813058.538 10 0 59273 5400.00000 0 21088242.339 346750.572 14413331.183 10 0 59273 6300.00000 0 22687873.633 633719.487 11734855.839 10 0 59273 7200.00000 0 23970676.977 721707.092 8829560.710 10 0 59273 8100.00000 0 24894241.948 653827.862 5753682.164 10 0 59273 9000.00000 0 25427673.509 480357.812 2566686.733 10 0 59273 9900.00000 0 25552827.278 256380.960 -669863.830 10 0 59273 10800.00000 0 25265034.921 39237.245 -3893483.816 10 0 59273 11700.00000 0 24573290.762 -114121.760 -7041950.053 10 0 59273 12600.00000 0 23499892.503 -149759.510 -10054482.296 10 0 59273 13500.00000 0 22079550.967 -19254.503 -12872896.538 10 0 59273 14400.00000 0 20358005.159 318030.194 -15442710.728 10 0 59273 15300.00000 0 18390198.905 893002.417 -17714183.116 10 0 59273 16200.00000 0 16238092.978 1725302.897 -19643264.614 10 0 59273 17100.00000 0 13968201.443 2822239.033 -21192447.889 10 0 59273 18000.00000 0 11648952.332 4178236.703 -22331497.312 10 0 59273 18900.00000 0 9347980.162 5774835.580 -23038045.828 10 0 59273 19800.00000 0 7129460.960 7581231.382 -23298046.700 10 0 59273 20700.00000 0 5051599.441 9555346.073 -23106070.245 10 0 59273 21600.00000 0 3164372.289 11645385.185 -22465438.202 10 0 59273 22500.00000 0 1507621.678 13791820.995 -21388190.940 10 0 59273 23400.00000 0 109579.478 15929721.825 -19894885.653 10 0 59273 24300.00000 0 -1014114.840 17991332.561 -18014226.852 10 0 59273 25200.00000 0 -1860859.735 19908799.816 -15782533.699 10 0 59273 26100.00000 0 -2440980.044 21616927.808 -13243052.376 10 0 59273 27000.00000 0 -2777061.480 23055848.544 -10445125.118 10 0 59273 27900.00000 0 -2902758.165 24173492.392 -7443231.069 10 0 59273 28800.00000 0 -2861123.192 24927752.595 -4295917.569 10 0 59273 29700.00000 0 -2702533.387 25288249.803 -1064643.402 10 0 59273 30600.00000 0 -2482297.671 25237619.461 2187441.940 10 0 59273 31500.00000 0 -2258052.655 24772265.393 5396756.845 10 0 59273 32400.00000 0 -2087058.941 23902546.177 8500556.837 10 0 59273 33300.00000 0 -2023516.076 22652385.772 11438186.892 10 0 59273 34200.00000 0 -2116013.325 21058325.169 14152289.504 10 0 59273 35100.00000 0 -2405227.300 19168056.310 16589942.583 10 0 59273 36000.00000 0 -2921966.232 17038502.021 18703703.165 10 0 59273 36900.00000 0 -3685645.154 14733525.158 20452535.459 10 0 59273 37800.00000 0 -4703256.931 12321365.706 21802604.910 10 0 59273 38700.00000 0 -5968882.291 9871915.446 22727923.391 10 0 59273 39600.00000 0 -7463758.372 7453945.948 23210834.185 10 0 59273 40500.00000 0 -9156901.350 5132406.454 23242329.208 10 0 59273 41400.00000 0 -11006255.203 2965904.127 22822194.529 10 0 59273 42300.00000 0 -12960316.607 1004470.469 21958983.751 10 0 59273 43200.00000 0 -14960166.485 -712295.380 20669822.158 10 0 59273 44100.00000 0 -16941822.243 -2156632.211 18980047.590 10 0 59273 45000.00000 0 -18838812.007 -3313516.204 16922696.836 10 0 59273 45900.00000 0 -20584863.705 -4181020.704 14537848.910 10 0 59273 46800.00000 0 -22116597.739 -4770125.050 11871838.770 10 0 59273 47700.00000 0 -23376112.353 -5103983.840 8976357.151 10 0 59273 48600.00000 0 -24313355.758 -5216689.961 5907453.810 10 0 59273 49500.00000 0 -24888188.158 -5151585.166 2724462.890 10 0 59273 50400.00000 0 -25072049.651 -4959190.074 -511129.681 10 0 59273 51300.00000 0 -24849166.302 -4694840.727 -3736856.150 10 0 59273 52200.00000 0 -24217245.396 -4416130.434 -6890453.176 10 0 59273 53100.00000 0 -23187631.667 -4180263.295 -9911043.010 10 0 59273 54000.00000 0 -21784918.065 -4041429.268 -12740288.611 10 0 59273 54900.00000 0 -20046026.575 -4048309.655 -15323502.153 10 0 59273 55800.00000 0 -18018795.998 -4241816.637 -17610687.074 10 0 59273 56700.00000 0 -15760133.504 -4653161.133 -19557495.026 10 0 59273 57600.00000 0 -13333804.358 -5302330.143 -21126080.323 10 0 59273 58500.00000 0 -10807949.116 -6197038.320 -22285836.016 10 0 59273 59400.00000 0 -8252428.812 -7332199.551 -23013997.515 10 0 59273 60300.00000 0 -5736106.056 -8689943.305 -23296101.664 10 0 59273 61200.00000 0 -3324173.215 -10240178.340 -23126291.271 10 0 59273 62100.00000 0 -1075637.553 -11941683.840 -22507457.588 10 0 59273 63000.00000 0 958932.519 -13743686.112 -21451215.851 10 0 59273 63900.00000 0 2739305.751 -15587858.214 -19977711.843 10 0 59273 64800.00000 0 4237050.754 -17410661.658 -18115260.615 10 0 59273 65700.00000 0 5436500.459 -19145933.956 -15899821.782 10 0 59273 66600.00000 0 6335176.116 -20727614.254 -13374319.343 10 0 59273 67500.00000 0 6943651.383 -22092492.286 -10587817.511 10 0 59273 68400.00000 0 7284860.898 -23182863.680 -7594567.514 10 0 59273 69300.00000 0 7392881.739 -23948977.511 -4452943.826 10 0 59273 70200.00000 0 7311239.387 -24351170.171 -1224291.197 10 0 59273 71100.00000 0 7090810.886 -24361592.511 2028293.577 10 0 59273 72000.00000 0 6787415.907 -23965454.538 5241219.078 10 0 59273 72900.00000 0 6459200.513 -23161732.878 8351668.737 10 0 59273 73800.00000 0 6163927.718 -21963309.719 11298854.751 10 0 59273 74700.00000 0 5956293.003 -20396536.921 14025229.047 10 0 59273 75600.00000 0 5885381.746 -18500244.259 16477625.329 10 0 59273 76500.00000 0 5992378.870 -16324234.922 18608308.024 10 0 59273 77400.00000 0 6308629.447 -13927333.630 20375906.532 10 0 59273 78300.00000 0 6854133.211 -11375071.627 21746216.279 10 0 59273 79200.00000 0 7636536.486 -8737107.800 22692851.516 10 0 59273 80100.00000 0 8650663.150 -6084495.731 23197738.342 10 0 59273 81000.00000 0 9878602.836 -3486911.957 23251440.242 10 0 59273 81900.00000 0 11290350.732 -1009961.230 22853312.002 10 0 59273 82800.00000 0 12844969.998 1287329.648 22011481.413 10 0 59273 83700.00000 0 14492226.162 3354726.925 20742661.539 10 0 59273 84600.00000 0 16174623.512 5152624.444 19071799.330 10 0 59273 85500.00000 0 17829757.279 6653424.557 17031569.291 10 0 59274 0.00000 0 19392882.946 7842411.730 14661723.474 10 0 59274 900.00000 0 20799595.609 8718086.186 12008310.933 10 0 59274 1800.00000 0 21988508.749 9291947.652 9122783.064 10 0 59274 2700.00000 0 22903821.166 9587740.637 6061000.919 10 0 59274 3600.00000 0 23497667.747 9640196.287 2882163.995 10 0 59274 4500.00000 0 23732156.843 9493324.296 -352319.999 10 0 59274 5400.00000 0 23581011.370 9198327.645 -3580003.732 10 0 59274 6300.00000 0 23030746.395 8811227.470 -6738586.170 10 0 59274 7200.00000 0 22081334.945 8390297.006 -9767094.473 10 0 59274 8100.00000 0 20746334.489 7993411.132 -12607040.844 10 0 59274 9000.00000 0 19052468.244 7675421.361 -15203533.778 10 0 59274 9900.00000 0 17038677.495 7485665.062 -17506323.799 10 0 59274 10800.00000 0 14754682.423 7465712.402 -19470764.980 10 0 59274 11700.00000 0 12259108.711 7647445.010 -21058674.794 10 0 59274 12600.00000 0 9617255.063 8051547.162 -22239076.315 10 0 59274 13500.00000 0 6898591.356 8686473.825 -22988808.608 10 0 59274 14400.00000 0 4174088.512 9547940.732 -23292993.104 10 0 59274 15300.00000 0 1513488.669 10618960.507 -23145345.868 10 0 59274 16200.00000 0 -1017372.759 11870426.606 -22548328.140 10 0 59274 17100.00000 0 -3359082.858 13262224.077 -21513130.122 10 0 59274 18000.00000 0 -5460900.227 14744824.067 -20059485.846 10 0 59274 18900.00000 0 -7282642.949 16261298.208 -18215320.113 10 0 59274 19800.00000 0 -8796135.502 17749670.704 -16016231.718 10 0 59274 20700.00000 0 -9986152.337 19145510.593 -13504820.756 10 0 59274 21600.00000 0 -10850816.846 20384655.396 -10729871.297 10 0 59274 22500.00000 0 -11401437.358 21405950.584 -7745404.194 10 0 59274 23400.00000 0 -11661785.902 22153887.450 -4609618.327 10 0 59274 24300.00000 0 -11666849.840 22581025.434 -1383741.476 10 0 59274 25200.00000 0 -11461109.596 22650093.545 1869185.311 10 0 59274 26100.00000 0 -11096416.802 22335678.961 5085563.915 10 0 59274 27000.00000 0 -10629564.989 21625428.749 8202508.772 10 0 59274 27900.00000 0 -10119658.698 20520711.789 11159102.306 10 0 59274 28800.00000 0 -9625395.720 19036711.836 13897608.773 10 0 59274 29700.00000 0 -9202380.867 17201947.584 16364620.376 10 0 59274 30600.00000 0 -8900587.873 15057240.651 18512111.431 10 0 59274 31500.00000 0 -8762078.999 12654176.486 20298378.777 10 0 59274 32400.00000 0 -8819080.038 10053124.804 21688849.792 10 0 59274 33300.00000 0 -9092492.311 7320904.609 22656742.764 10 0 59274 34200.00000 0 -9590903.750 4528193.582 23183567.941 10 0 59274 35100.00000 0 -10310139.259 1746791.378 23259461.317 10 0 59274 36000.00000 0 -11233367.241 -953148.349 22883346.919 10 0 59274 36900.00000 0 -12331755.458 -3505802.134 22062926.800 10 0 59274 37800.00000 0 -13565646.340 -5852166.648 20814501.372 10 0 59274 38700.00000 0 -14886200.420 -7942253.074 19162625.752 10 0 59274 39600.00000 0 -16237437.381 -9736897.487 17139610.698 10 0 59274 40500.00000 0 -17558588.342 -11209115.465 14784879.224 10 0 59274 41400.00000 0 -18786660.650 -12344948.314 12144192.286 10 0 59274 42300.00000 0 -19859108.258 -13143769.272 9268759.031 10 0 59274 43200.00000 0 -20716497.008 -13618040.369 6214248.698 10 0 59274 44100.00000 0 -21305054.755 -13792532.926 3039722.800 10 0 59274 45000.00000 0 -21579001.319 -13703046.310 -193492.644 10 0 59274 45900.00000 0 -21502562.536 -13394679.858 -3422974.279 10 0 59274 46800.00000 0 -21051585.604 -12919730.745 -6586386.933 10 0 59274 47700.00000 0 -20214689.246 -12335305.508 -9622666.177 10 0 59274 48600.00000 0 -18993901.042 -11700744.432 -12473176.852 10 0 59274 49500.00000 0 -17404754.956 -11074965.430 -15082826.986 10 0 59274 50400.00000 0 -15475843.909 -10513837.278 -17401117.137 10 0 59274 51300.00000 0 -13247844.172 -10067690.983 -19383106.392 10 0 59274 52200.00000 0 -10772049.616 -9779072.599 -20990277.531 10 0 59274 53100.00000 0 -8108473.882 -9680831.260 -22191285.248 10 0 59274 54000.00000 0 -5323596.060 -9794622.914 -22962573.262 10 0 59274 54900.00000 0 -2487840.305 -10129893.603 -23288847.951 10 0 59274 55800.00000 0 327108.785 -10683386.871 -23163398.380 10 0 59274 56700.00000 0 3051045.928 -11439198.587 -22588254.931 10 0 59274 57600.00000 0 5617927.818 -12369379.978 -21574181.397 10 0 59274 58500.00000 0 7968387.815 -13435066.812 -20140498.224 10 0 59274 59400.00000 0 10051977.840 -14588090.406 -18314737.703 10 0 59274 60300.00000 0 11829043.079 -15773005.321 -16132135.189 10 0 59274 61200.00000 0 13272149.562 -16929450.153 -13634963.919 10 0 59274 62100.00000 0 14367003.081 -17994742.760 -10871724.574 10 0 59274 63000.00000 0 15112819.014 -18906600.086 -7896204.152 10 0 59274 63900.00000 0 15522125.972 -19605866.336 -4766422.290 10 0 59274 64800.00000 0 15620010.673 -20039131.887 -1543486.089 10 0 59274 65700.00000 0 15442835.833 -20161129.242 1709622.830 10 0 59274 66600.00000 0 15036486.116 -19936801.462 4929303.163 10 0 59274 67500.00000 0 14454218.171 -19342952.486 8052603.593 10 0 59274 68400.00000 0 13754208.303 -18369406.935 11018479.656 10 0 59274 69300.00000 0 12996904.690 -17019628.538 13769010.357 10 0 59274 70200.00000 0 12242299.476 -15310770.173 16250548.332 10 0 59274 71100.00000 0 11547239.217 -13273153.413 18414779.204 10 0 59274 72000.00000 0 10962889.914 -10949200.469 20219668.151 10 0 59274 72900.00000 0 10532465.390 -8391864.940 21630274.912 10 0 59274 73800.00000 0 10289315.613 -5662629.072 22619421.768 10 0 59274 74700.00000 0 10255455.191 -2829153.381 23168202.647 10 0 59274 75600.00000 0 10440592.755 37321.602 23266325.240 10 0 59274 76500.00000 0 10841700.004 2864712.035 22912281.697 10 0 59274 77400.00000 0 11443136.004 5582851.658 22113346.965 10 0 59274 78300.00000 0 12217318.806 8126162.704 20885407.248 10 0 59274 79200.00000 0 13125913.598 10436127.375 19252624.131 10 0 59274 80100.00000 0 14121485.340 12463459.532 17246942.790 10 0 59274 81000.00000 0 15149544.970 14169889.383 14907455.324 10 0 59274 81900.00000 0 16150902.504 15529490.466 12279632.449 10 0 59274 82800.00000 0 17064228.214 16529497.197 9414438.960 10 0 59274 83700.00000 0 17828715.075 17170582.418 6367350.035 10 0 59274 84600.00000 0 18386732.006 17466586.400 3197286.854 10 0 59274 85500.00000 0 18686358.136 17443710.972 -34508.666 10 0 59275 0.00000 0 18683693.627 17139214.139 -3265639.493 10 0 59275 900.00000 0 18344851.351 16599660.548 -6433738.823 10 0 59275 1800.00000 0 17647548.406 15878801.054 -9477652.823 10 0 59275 2700.00000 0 16582229.518 15035169.498 -12338601.048 10 0 59275 3600.00000 0 15152677.392 14129496.009 -14961292.928 10 0 59275 4500.00000 0 13376082.245 13222043.724 -17294980.704 10 0 59275 5400.00000 0 11282566.580 12369978.821 -19294429.932 10 0 59275 6300.00000 0 8914182.356 11624882.591 -20920789.962 10 0 59275 7200.00000 0 6323419.410 11030508.792 -22142348.244 10 0 59275 8100.00000 0 3571283.727 10620879.816 -22935154.142 10 0 59275 9000.00000 0 725021.913 10418801.838 -23283499.840 10 0 59275 9900.00000 0 -2144416.854 10434862.342 -23180248.066 10 0 59275 10800.00000 0 -4965078.903 10666953.980 -22626998.749 10 0 59275 11700.00000 0 -7666754.246 11100347.261 -21634089.345 10 0 59275 12600.00000 0 -10183661.852 11708311.881 -20220426.385 10 0 59275 13500.00000 0 -12456960.666 12453263.511 -18413148.891 10 0 59275 14400.00000 0 -14436981.198 13288390.429 -16247127.578 10 0 59275 15300.00000 0 -16085083.137 14159693.519 -13764307.226 10 0 59275 16200.00000 0 -17375059.524 15008354.755 -11012903.178 10 0 59275 17100.00000 0 -18294026.586 15773334.340 -8046466.350 10 0 59275 18000.00000 0 -18842759.917 16394085.730 -4922834.691 10 0 59275 18900.00000 0 -19035461.450 16813271.784 -1702992.018 10 0 59275 19800.00000 0 -18898966.381 16979364.323 1550142.185 10 0 59275 20700.00000 0 -18471423.673 16849013.831 4772966.219 10 0 59275 21600.00000 0 -17800507.181 16389085.678 7902465.846 10 0 59275 22500.00000 0 -16941235.078 15578273.644 10877472.539 10 0 59275 23400.00000 0 -15953492.590 14408220.103 13639882.841 10 0 59275 24300.00000 0 -14899365.962 12884093.968 16135812.523 10 0 59275 25200.00000 0 -13840403.460 11024601.361 18316661.053 10 0 59275 26100.00000 0 -12834921.913 8861428.896 20140064.279 10 0 59275 27000.00000 0 -11935474.525 6438144.064 21570716.363 10 0 59275 27900.00000 0 -11186587.840 3808600.413 22581045.340 10 0 59275 28800.00000 0 -10622863.271 1034916.254 23151730.231 10 0 59275 29700.00000 0 -10267522.087 -1814886.945 23272051.469 10 0 59275 30600.00000 0 -10131453.113 -4669486.610 22940069.980 10 0 59275 31500.00000 0 -10212800.578 -7456992.373 22162633.853 10 0 59275 32400.00000 0 -10497106.422 -10107697.093 20955214.914 10 0 59275 33300.00000 0 -10957998.041 -12556732.184 19341580.600 10 0 59275 34200.00000 0 -11558389.822 -14746518.656 17353309.477 10 0 59275 35100.00000 0 -12252145.725 -16628914.622 15029161.266 10 0 59275 36000.00000 0 -12986131.568 -18166973.046 12414314.588 10 0 59275 36900.00000 0 -13702570.037 -19336239.910 9559487.684 10 0 59275 37800.00000 0 -14341599.539 -20125542.147 6519959.161 10 0 59275 38700.00000 0 -14843930.139 -20537235.564 3354507.105 10 0 59275 39600.00000 0 -15153486.245 -20586904.970 124286.362 10 0 59275 40500.00000 0 -15219926.650 -20302530.950 -3108335.621 10 0 59275 41400.00000 0 -15000937.664 -19723159.230 -6280963.393 10 0 59275 42300.00000 0 -14464204.584 -18897128.533 -9332357.178 10 0 59275 43200.00000 0 -13588979.717 -17879930.626 -12203594.612 10 0 59275 44100.00000 0 -12367181.595 -16731790.983 -14839189.845 10 0 59275 45000.00000 0 -10803978.884 -15515069.744 -17188149.989 10 0 59275 45900.00000 0 -8917833.255 -14291589.960 -19204950.023 10 0 59275 46800.00000 0 -6739997.214 -13120003.130 -20850408.489 10 0 59275 47700.00000 0 -4313485.010 -12053300.816 -22092447.773 10 0 59275 48600.00000 0 -1691556.017 -11136575.434 -22906724.563 10 0 59275 49500.00000 0 1064230.012 -10405123.614 -23277117.977 10 0 59275 50400.00000 0 3886308.559 -9882971.971 -23196064.968 10 0 59275 51300.00000 0 6703664.793 -9581888.226 -22664735.037 10 0 59275 52200.00000 0 9444543.440 -9500920.998 -21693038.821 10 0 59275 53100.00000 0 12039203.162 -9626489.965 -20299467.969 10 0 59275 54000.00000 0 14422601.807 -9933025.181 -18510766.814 10 0 59275 54900.00000 0 16536900.540 -10384131.204 -16361439.540 10 0 59275 55800.00000 0 18333681.275 -10934229.091 -13893100.122 10 0 59275 56700.00000 0 19775783.032 -11530608.466 -11153675.743 10 0 59275 57600.00000 0 20838678.165 -12115803.475 -8196477.969 10 0 59275 58500.00000 0 21511328.452 -12630191.657 -5079159.408 10 0 59275 59400.00000 0 21796483.159 -13014704.189 -1862576.654 10 0 59275 60300.00000 0 21710405.205 -13213530.278 1390417.043 10 0 59275 61200.00000 0 21282036.487 -13176698.065 4616223.682 10 0 59275 62100.00000 0 20551638.134 -12862419.316 7751770.024 10 0 59275 63000.00000 0 19568964.622 -12239095.301 10735767.087 10 0 59275 63900.00000 0 18391051.173 -11286896.110 13509932.116 10 0 59275 64800.00000 0 17079710.832 -9998844.472 16020146.650 10 0 59275 65700.00000 0 15698849.982 -8381357.039 18217526.069 10 0 59275 66600.00000 0 14311718.500 -6454220.036 20059378.383 10 0 59275 67500.00000 0 12978212.901 -4250000.842 21510033.113 10 0 59275 68400.00000 0 11752347.563 -1812921.426 22541524.441 10 0 59275 69300.00000 0 10680001.020 802757.433 23134116.398 10 0 59275 70200.00000 0 9797031.409 3534771.808 23276661.623 10 0 59275 71100.00000 0 9127838.636 6315223.668 22966788.891 10 0 59275 72000.00000 0 8684431.103 9073183.356 22210918.156 10 0 59275 72900.00000 0 8466033.068 11737416.803 21024105.283 10 0 59275 73800.00000 0 8459245.730 14239124.462 19429721.743 10 0 59275 74700.00000 0 8638751.980 16514579.229 17458977.459 10 0 59275 75600.00000 0 8968532.302 18507555.744 15150297.584 10 0 59275 76500.00000 0 9403538.452 20171452.673 12548566.295 10 0 59275 77400.00000 0 9891753.097 21471022.598 9704252.827 10 0 59275 78300.00000 0 10376548.182 22383640.711 6672436.626 10 0 59275 79200.00000 0 10799243.000 22900062.432 3511750.035 10 0 59275 80100.00000 0 11101755.254 23024640.993 283258.127 10 0 59275 81000.00000 0 11229234.931 22774998.006 -2950703.858 10 0 59275 81900.00000 0 11132571.811 22181162.111 -6127714.545 10 0 59275 82800.00000 0 10770672.761 21284212.248 -9186450.594 10 0 59275 83700.00000 0 10112414.393 20134482.025 -12067849.933 10 0 59275 84600.00000 0 9138189.796 18789399.295 -14716233.397 10 0 59275 85500.00000 0 7840984.512 17311049.734 -17080364.664 99